EW6083 Weather Reports


time (UTC)temp
C
wind
direction
speed
KPH
gust
KPH
rain 1hr
cm
rain 24hr
cm
rain mn
cm
humidity
%
barometer
mb
20260507141550 13 270 4.8 6.4 0.00 0.36 0.23 40 1017.6
20260507140546 12 180 3.2 4.8 0.00 0.36 0.23 40 1017.8
20260507135538 12 293 6.4 8.0 0.00 0.36 0.23 40 1017.6
20260507134613 13 270 6.4 6.4 0.00 0.36 0.23 40 1017.7
20260507133534 13 180 8.0 11.3 0.00 0.36 0.23 41 1017.5
20260507132529 13 315 3.2 6.4 0.00 0.36 0.23 41 1017.4
20260507131522 12 180 6.4 11.3 0.00 0.36 0.23 41 1017.7
20260507130520 12 135 8.0 11.3 0.00 0.36 0.23 43 1017.6
20260507125514 11 270 11.3 14.5 0.00 0.36 0.23 47 1017.7
20260507124511 11 270 6.4 8.0 0.00 0.36 0.23 46 1017.7
20260507123508 11 270 6.4 9.7 0.00 0.36 0.23 48 1017.6
20260507122505 11 135 6.4 9.7 0.00 0.36 0.23 48 1018.0
20260507121623 11 225 6.4 8.0 0.00 0.36 0.23 48 1017.7
20260507120601 10 225 4.8 6.4 0.00 0.36 0.23 50 1017.7
20260507115552 10 248 9.7 12.9 0.00 0.36 0.23 48 1017.7
20260507114547 10 248 6.4 9.7 0.00 0.36 0.23 50 1017.8
20260507113546 10 225 6.4 11.3 0.00 0.36 0.23 49 1017.5
20260507112539 10 270 6.4 9.7 0.00 0.36 0.23 50 1017.7
20260507111536 10 225 4.8 6.4 0.00 0.36 0.23 50 1017.6
20260507110528 10 45 3.2 6.4 0.00 0.36 0.23 49 1017.8
20260507105550 10 180 12.9 14.5 0.00 0.36 0.23 50 1017.4
20260507104542 10 225 11.3 14.5 0.00 0.36 0.23 51 1017.4
20260507103516 10 135 9.7 12.9 0.00 0.36 0.23 51 1017.4
20260507102512 10 180 11.3 12.9 0.00 0.36 0.23 51 1017.4
20260507101532 10 225 9.7 12.9 0.00 0.36 0.23 52 1017.3
20260507100506 10 315 8.0 11.3 0.00 0.36 0.23 52 1017.2
20260507095503 10 270 9.7 16.1 0.00 0.36 0.23 53 1017.3
20260507094501 10 248 14.5 17.7 0.00 0.36 0.23 55 1017.0
20260507093453 9 270 9.7 14.5 0.00 0.36 0.23 55 1017.1
20260507092447 10 225 14.5 17.7 0.00 0.36 0.23 57 1016.9
20260507091443 10 203 6.4 9.7 0.00 0.36 0.23 59 1017.0
20260507090439 9 180 12.9 17.7 0.00 0.36 0.23 59 1017.1
20260507085436 8 225 9.7 11.3 0.00 0.36 0.23 60 1017.2
20260507084452 8 225 8.0 11.3 0.00 0.36 0.23 61 1016.9
20260507083427 8 135 11.3 16.1 0.00 0.36 0.23 62 1016.8
20260507082422 8 45 6.4 11.3 0.00 0.36 0.23 62 1016.8
20260507081416 7 270 6.4 9.7 0.00 0.38 0.23 62 1016.9
20260507080415 7 225 12.9 14.5 0.00 0.43 0.23 63 1016.6
20260507075412 7 225 8.0 9.7 0.00 0.46 0.23 63 1016.5
20260507074408 7 225 6.4 11.3 0.00 0.48 0.23 69 1016.3
20260507073403 7 180 8.0 11.3 0.00 0.48 0.23 70 1016.4
20260507072358 7 180 11.3 12.9 0.00 0.48 0.23 71 1016.3
20260507071354 6 180 6.4 11.3 0.00 0.48 0.23 72 1016.2
20260507070351 6 225 6.4 11.3 0.00 0.48 0.23 75 1016.1
20260507065346 6 270 9.7 12.9 0.00 0.48 0.23 78 1016.0
20260507064342 5 180 9.7 12.9 0.00 0.48 0.23 80 1016.0
20260507063332 5 180 6.4 9.7 0.00 0.48 0.23 81 1016.0
20260507062351 5 135 6.4 9.7 0.00 0.48 0.23 81 1016.2
20260507061328 5 225 6.4 9.7 0.00 0.48 0.23 82 1016.2
20260507060344 5 270 8.0 12.9 0.00 0.48 0.23 82 1015.9
20260507055319 4 180 6.4 11.3 0.00 0.48 0.23 82 1015.9
20260507054356 4 225 12.9 17.7 0.00 0.48 0.23 82 1015.9
20260507053312 4 225 6.4 12.9 0.00 0.48 0.23 82 1015.6
20260507052329 4 270 12.9 14.5 0.00 0.51 0.23 82 1015.9
20260507051304 4 180 8.0 12.9 0.00 0.51 0.23 82 1015.6
20260507050357 4 248 12.9 17.7 0.00 0.51 0.23 82 1015.4
20260507045357 4 180 9.7 14.5 0.00 0.51 0.23 82 1015.3
20260507044350 4 225 9.7 14.5 0.00 0.51 0.23 82 1015.5
20260507043346 4 315 12.9 17.7 0.00 0.51 0.23 82 1015.3
20260507042338 4 180 9.7 12.9 0.00 0.51 0.23 82 1015.3
20260507041339 4 225 8.0 11.3 0.00 0.51 0.23 82 1014.9
20260507040332 4 180 6.4 6.4 0.00 0.51 0.23 82 1015.0
20260507035327 4 180 6.4 8.0 0.00 0.51 0.23 82 1014.9
20260507034320 4 225 8.0 11.3 0.00 0.53 0.23 82 1014.9
20260507033341 4 270 8.0 11.3 0.00 0.53 0.23 82 1014.9
20260507032315 4 225 4.8 6.4 0.00 0.53 0.23 82 1015.0
20260507031312 4 270 11.3 12.9 0.00 0.56 0.23 82 1014.7
20260507030310 4 225 12.9 17.7 0.00 0.56 0.23 82 1014.9
20260507025307 4 225 8.0 12.9 0.00 0.61 0.23 83 1014.5
20260507024301 4 225 12.9 16.1 0.00 0.61 0.23 83 1014.3
20260507023256 4 180 9.7 17.7 0.00 0.64 0.23 83 1014.4
20260507022252 4 315 6.4 12.9 0.00 0.64 0.23 84 1014.4
20260507021249 4 248 8.0 12.9 0.00 0.64 0.23 84 1014.4
20260507020242 3 225 9.7 17.7 0.00 0.64 0.23 84 1014.0
20260507015240 4 225 6.4 12.9 0.03 0.64 0.23 85 1014.1
20260507014233 4 225 8.0 12.9 0.03 0.66 0.23 85 1014.2
20260507013231 3 270 11.3 16.1 0.03 0.69 0.23 85 1014.0
20260507012224 4 90 11.3 14.5 0.03 0.69 0.23 85 1014.0
20260507011221 3 225 12.9 17.7 0.03 0.69 0.23 85 1014.0
20260507010213 3 225 8.0 11.3 0.03 0.69 0.23 85 1013.9
20260507005249 3 270 4.8 6.4 0.00 0.66 0.20 84 1014.0
20260507004206 3 180 1.6 3.2 0.00 0.66 0.20 84 1014.0
20260507003208 3 135 3.2 3.2 0.00 0.69 0.20 84 1014.0
20260507002305 3 270 11.3 16.1 0.00 0.69 0.20 84 1013.9
20260507001258 3 225 12.9 17.7 0.00 0.69 0.20 84 1014.0
20260507000255 3 135 4.8 6.4 0.03 0.69 0.20 84 1013.6
20260506235246 3 180 11.3 12.9 0.05 0.69 0.20 84 1013.7
20260506234244 3 270 9.7 17.7 0.13 0.69 0.20 83 1013.7
20260506233240 3 270 9.7 14.5 0.15 0.69 0.20 83 1013.5
20260506232235 3 180 4.8 6.4 0.18 0.69 0.20 83 1013.2
20260506231232 3 180 3.2 6.4 0.20 0.69 0.20 82 1013.4
20260506230228 3 135 1.6 3.2 0.18 0.66 0.18 82 1013.4
20260506225218 3 135 6.4 8.0 0.15 0.64 0.15 82 1013.4
20260506224219 3 225 9.7 12.9 0.13 0.56 0.10 81 1013.7
20260506223211 3 180 17.7 17.7 0.18 0.53 0.05 81 1013.7
20260506222211 3 180 6.4 9.7 0.15 0.51 0.03 80 1013.4
20260506221209 3 225 8.0 12.9 0.13 0.48 0.00 79 1013.6
20260506220226 3 90 3.2 6.4 0.13 0.48 0.00 77 1013.5
20260506215201 4 135 6.4 6.4 0.13 0.48 0.48 75 1013.4
20260506214151 4 45 6.4 8.0 0.10 0.46 0.46 73 1013.6
20260506213213 5 270 22.5 30.6 0.00 0.36 0.36 72 1013.3
20260506212144 5 270 9.7 12.9 0.00 0.36 0.36 72 1013.0
20260506211144 5 315 6.4 9.7 0.00 0.36 0.36 72 1013.0
20260506210140 5 135 9.7 12.9 0.00 0.36 0.36 72 1012.9
20260506205131 5 180 6.4 8.0 0.00 0.36 0.36 72 1012.8
20260506204127 5 180 4.8 6.4 0.00 0.36 0.36 72 1012.8
20260506203124 5 225 8.0 11.3 0.00 0.36 0.36 71 1012.9
20260506202119 6 248 9.7 14.5 0.00 0.36 0.36 71 1013.0
20260506201114 6 225 9.7 12.9 0.00 0.36 0.36 71 1012.7
20260506200109 5 135 9.7 14.5 0.00 0.36 0.36 71 1012.8
20260506195106 5 90 6.4 8.0 0.00 0.36 0.36 70 1012.8
20260506194104 5 45 6.4 6.4 0.00 0.36 0.36 70 1012.9
20260506193101 6 315 6.4 9.7 0.00 0.36 0.36 70 1012.9
20260506192053 6 180 9.7 12.9 0.00 0.36 0.36 68 1012.8
20260506191111 6 225 9.7 14.5 0.00 0.36 0.36 67 1012.8
20260506190047 6 225 12.9 16.1 0.00 0.36 0.36 66 1012.6
20260506185042 6 270 12.9 17.7 0.00 0.36 0.36 67 1012.6
20260506184040 7 270 6.4 11.3 0.00 0.36 0.36 67 1012.6
20260506183033 7 270 11.3 14.5 0.00 0.36 0.36 65 1012.4
20260506182028 7 225 9.7 12.9 0.00 0.36 0.36 64 1012.4
20260506181024 7 270 6.4 8.0 0.00 0.36 0.36 62 1012.4
20260506180022 7 315 11.3 14.5 0.00 0.36 0.36 54 1012.4
20260506175012 7 225 12.9 16.1 0.00 0.36 0.36 53 1012.4
20260506174052 8 225 9.7 14.5 0.00 0.36 0.36 52 1012.3
20260506173010 9 270 9.7 12.9 0.00 0.36 0.36 54 1012.2
20260506172007 8 180 9.7 12.9 0.00 0.36 0.36 53 1012.3
20260506171023 8 248 16.1 19.3 0.00 0.36 0.36 54 1012.2
20260506165953 8 225 12.9 16.1 0.00 0.36 0.36 54 1012.2
20260506164954 8 248 9.7 12.9 0.00 0.36 0.36 53 1012.3
20260506163949 8 225 11.3 12.9 0.00 0.36 0.36 53 1012.2
20260506162945 8 270 12.9 19.3 0.00 0.36 0.36 51 1012.2
20260506161938 8 225 8.0 12.9 0.00 0.36 0.36 51 1012.1
20260506160935 9 248 12.9 14.5 0.00 0.36 0.36 50 1012.3
20260506155950 10 0 12.9 17.7 0.00 0.36 0.36 49 1012.3
20260506154926 11 270 17.7 20.9 0.00 0.36 0.36 51 1012.5
20260506153920 10 225 12.9 16.1 0.00 0.36 0.36 54 1012.5
20260506152913 9 270 11.3 12.9 0.00 0.36 0.36 54 1012.6
20260506151934 8 315 6.4 9.7 0.00 0.36 0.36 54 1012.4
20260506150911 8 315 9.7 12.9 0.00 0.36 0.36 53 1012.6
20260506145908 8 248 12.9 17.7 0.00 0.36 0.36 52 1012.6
20260506145002 8 270 12.9 16.1 0.00 0.36 0.36 51 1012.4
20260506144002 10 225 9.7 12.9 0.00 0.36 0.36 52 1012.3
20260506142954 10 180 17.7 22.5 0.00 0.36 0.36 54 1012.3